Погода в Барнауле

Погода в Барнауле : погода сейчас, прогноз погоды и архив. Всё, что Вы хотите узнать о погоде в Барнауле!

Хотите узнать прогноз погоды Барнаул? Тогда Вам сюда: Погода Барнаул

Поиск расширенной информации на нашем сайте:

Другие новости

Новости СМИ2

Главная страница сайта

Новости сайта

03.07.2017

Напоминаем, что на нашем специализированном сайте Метеоцентр.Азия вы можете получить высокодетализированные автоматические прогнозы погоды по пунктам России, СНГ и мира в авиационном формате (включающие направление и скорость ветра, видимость, явления погоды, количество и форму облачности, нижнюю и верхнюю границу облачности).


Погода в Барнауле - сегодня

Время (UTC), дата Ветер
(°,м/с) 
Видим.   Явления Облачность Т
(°С)
Тd
(°С)
f(%) Тe
(°С)
Pmin
(гПа)
dP
(гПа)
Po
(мм)
O2
(г/м3)
Тmin Tmax R s Состояние
почвы
00 19.04.18 130 (ЮВ) 10 км    ясно 
-4.4 -6.9 83 -4  1022.7  -0.5  749  308  -6.1         
03 19.04.18 100 (В) 10 км    9/0 средняя, верхняя 
[Ac trans|Ci fib]
+2.5 -10.1 39 +2  1021.1  -1  749  300           
06 19.04.18 080 (В) 10 км    9/0 средняя, верхняя 
[Ac trans|Ci fib]
+3.9 -9.9 36 +3  1018.6  -2.3  747  298           
09 19.04.18 060 (СВ) 10 км    8/0 верхняя 
[Ci fib]
+5.6 -9.4 33 +5  1016.6  -1.9  745  295           
12 19.04.18 070 (В) 10 км    9/0 средняя, верхняя 
[Ac trans|Ci fib]
+5.5 -9.2 34 +5  1015.9  -0.6  745  295    +5.9       
15 19.04.18 тихо ()   10 км    ясно 
+1 -10.5 42 +1  1017.3  746  300           
18 19.04.18 290 (З) 10 км    ясно 
-1.1 -8.7 56 -1  1018.7  1.2  747  303           
21 19.04.18 тихо ()   10 км    ясно 
-3.9 -5.1 91 -4  1020.8  1.7  748  306           
00 20.04.18 180 (Ю) 10 км    ясно 
-4.2 -6.4 85 -4  1022.7  1.9  749  307  -4.8         
03 20.04.18 180 (Ю) 10 км    ясно 
+4.4 -3.6 56 +3  1023.1  1.1  750  298           
06 20.04.18 200 (Ю) 10 км    6/6 1000 м 
[Cu med, cong]
+8.2 -4.2 41 +7  1022.6  -0.1  750  294           
09 20.04.18 200 (Ю) 10 км    5/5 1000 м 
[Cu hum]
+9.4 -4 39 +8  1021.4  -1.1  749  292           
12 20.04.18 170 (Ю) 10 км    5/3 1000 м верхняя 
[Cu hum|Ci fib]
+8.7 -1.6 48 +9  1020.6  -0.9  749  292    +9.6       
15 20.04.18 150 (ЮВ) 10 км    3/0 верхняя 
[Ci fib]
+3 -1.7 71 +2  1020.8  -0.2  748  298           
18 20.04.18 180 (Ю) 10 км    ясно 
+2.1 -1.3 78 +1  1019.9  -1  748  299           
21 20.04.18 160 (Ю) 10 км    10/10 600 м 
[Sc]
+3.5 -0.7 74 +2  1018.3  -1.4  747  297           
00 21.04.18 170 (Ю) 10 км  {дождь}  10/6 600 м средняя 
[Sc|As trans]
+3.6 -0.4 75 +2  1017.6  -0.7  746  297  +1.7    0.0     
03 21.04.18 170 (Ю) 10 км    10/8 600 м средняя 
[Sc|Ac und]
+6.7 +0.5 65 +7  1017.8  0.4  746  293           
09 21.04.18 170 (Ю) 3{10}  10 км    10/0 средняя, верхняя 
[Ac As|Ci sp]
+16.1 +1.1 36 +16  1015.6  -1.1  745  283           
12 21.04.18 160 (Ю) 10 км    3/0 верхняя 
[Ci fib]
+15.9 +1.5 38 +16  1014.6  -1  745  283    +17       
15 21.04.18 150 (ЮВ) 10 км    10/0 верхняя 
[Cs]
+9.7 +1.4 56 +10  1014.9  -0.2  744  289           
18 21.04.18 150 (ЮВ) 10 км    10/0 верхняя 
[Cs]
+7.6 +1 63 +9  1014  -1  744  291           
21 21.04.18 150 (ЮВ) 10 км    ясно 
+6.5 -0.3 62 +7  1012.4  -1.6  743  292           
00 22.04.18 190 (Ю) 10 км    10/0 верхняя 
[Cs]
+7.4 -2.8 48 +7  1011.4  -1  742  291  +6.4         
03 22.04.18 180 (Ю) 10 км    10/0 верхняя 
[Cs]
+13.4 -0.6 38 +13  1010.3  -0.6  741  285           
Время (UTC), дата Ветер
(°,м/с) 
Видим.   Явления Облачность Т
(°С)
Тd
(°С)
f(%) Тe
(°С)
Pmin
(гПа)
dP
(гПа)
Po
(мм)
O2
(г/м3)
Тmin Tmax R s Состояние
почвы

Для получения пояснительной информации подведите курсор к названию столбца.

ПОГОДА в Барнауле - архив

Всё, что Вы хотите узнать о погоде в Барнауле - удобно и подробно!

Выберите нужную дату (начиная с 1 января 2015* года) и нажмите кнопку "Найти".
Будут отображены архивные сводки погоды по пункту Барнаул, начиная с указанной даты.


Отображать данные в формате CSV (для использования в таблицах Excel)


Внимание! Наш архив погоды предназначен исключительно для личного некоммерческого использования в познавательных целях. Если Вам необходимы официальные справки о состоянии погоды (для производственных, юридических, коммерческих и т.п. целей), обращайтесь в органы Росгидромета.

*Примечание: данная дата относится к архиву по метеостанциям СССР (Россия, СНГ, Балтия).
Архив по метеостанциям Зарубежной Европы и Азии (кроме Китая) хранится 10 дней, по другим регионам земного шара (Китай, Африка, Америка, Австралия, Океания) - 1 день.

Барнаул - район местоположения метеостанции


Название, широта, долгота, высота метеостанции:
Барнаул (город) 53.4°ш. 83.5°д. 184 м над ур. моря [Российская Федерация]

Дополнительная информация

В oтличие oт бoльшинства пoгoдных сайтoв мы публикуем пoдрoбную метеoинфoрмацию в детальнoм прoфессиoнальнoм фoрмате.

Характеристики температуры и влажнoсти вoздуха измеряются на высoте 2 м в тени вдали oт зданий и деревьев.
Скoрoсть ветра измеряется на высoте 10 м (на урoвне рoста челoвека скoрoсть ветра ниже в 1.5-2 раза). Если метеoстанция нахoдится в гoрoде или в лесу, тo скoрoсть ветра занижена на 2-4 м/с пo сравнению с oткрытым местoм. Скoрoсть ветра над акватoриями крупных рек и oзёр, а также на вершинах хoлмoв на 2-5 м/с выше, чем в oбычных услoвиях.
Атмoсфернoе давление в разных тoчках местнoсти мoжет значительнo oтличаться oт давления на метеoстанции, в зависимoсти oт услoвий рельефа (при пoдъёме на 10 м давление пoнижается примернo на 1 мм рт.ст.).